Location: Hylvaty SDH
(49.9612°N, 16.4057°E)
Time: 19:21:07
(UTC+02:00)

SR - All Passes

Search period start: 09 August 2020 00:00
Search period end: 19 August 2020 00:00
Orbit: 584 x 871 km, 66.7° (Epoch: 08 August)

Date Brightness Start Highest point End Pass type
(mag) Time Alt. Az. Time Alt. Az. Time Alt. Az.
09 Aug - 00:04:10 10° WSW 00:08:27 42° NW 00:12:34 10° NNE visible
09 Aug - 01:49:37 10° NW 01:51:35 13° NNW 01:53:31 10° N visible
09 Aug - 05:16:42 10° NNW 05:19:32 17° NNE 05:22:25 10° ENE daylight
09 Aug - 06:57:59 10° NNW 07:02:17 72° NE 07:06:46 10° SE daylight
09 Aug - 08:41:04 10° WNW 08:43:49 17° WSW 08:46:39 10° SSW daylight
09 Aug - 21:34:31 10° SE 21:37:10 15° ESE 21:39:44 10° ENE visible
09 Aug - 23:14:07 10° SW 23:18:40 78° NW 23:22:59 10° NE visible
10 Aug - 00:58:19 10° WNW 01:01:21 18° NNW 01:04:18 10° NNE visible
10 Aug - 04:27:32 10° N 04:29:17 12° NNE 04:31:04 10° NE visible
10 Aug - 06:08:25 10° NNW 06:12:28 39° NE 06:16:40 10° ESE daylight
10 Aug - 07:50:33 10° NW 07:54:24 32° WSW 07:58:25 10° S daylight
10 Aug - 22:24:34 10° SSW 22:29:00 54° ESE 22:33:13 10° NE visible
11 Aug - 00:07:28 10° W 00:11:15 27° NW 00:14:56 10° NNE visible
11 Aug - 05:18:58 10° NNW 05:22:30 24° NE 05:26:08 10° E daylight
11 Aug - 07:00:35 10° NW 07:04:51 63° WSW 07:09:20 10° SSE daylight
11 Aug - 21:35:37 10° S 21:39:29 28° ESE 21:43:11 10° ENE visible
11 Aug - 23:17:02 10° WSW 23:21:19 45° NW 23:25:28 10° NNE visible
12 Aug - 01:02:22 10° NW 01:04:25 13° NNW 01:06:28 10° N visible
12 Aug - 04:29:37 10° N 04:32:23 16° NNE 04:35:11 10° ENE visible
12 Aug - 06:10:53 10° NNW 06:15:10 68° NE 06:19:40 10° SE daylight
12 Aug - 07:53:49 10° WNW 07:56:45 18° WSW 07:59:47 10° SSW daylight
12 Aug - 20:47:41 10° SE 20:50:06 14° ESE 20:52:26 10° ENE visible
12 Aug - 22:27:02 10° SW 22:31:32 83° NW 22:35:52 10° NE visible
13 Aug - 00:11:07 10° WNW 00:14:12 18° NNW 00:17:13 10° NNE visible
13 Aug - 03:40:28 10° N 03:42:07 12° NNE 03:43:48 10° NE visible
13 Aug - 05:21:19 10° NNW 05:25:21 38° NE 05:29:31 10° ESE daylight
13 Aug - 07:03:23 10° NW 07:07:19 34° WSW 07:11:26 10° S daylight
13 Aug - 21:37:31 10° SSW 21:41:54 51° ESE 21:46:05 10° NE visible
13 Aug - 23:20:18 10° W 23:24:07 28° NW 23:27:50 10° NNE visible
14 Aug - 01:07:05 10° NNW 01:07:35 10° NNW 01:08:06 10° N visible
14 Aug - 04:31:52 10° NNW 04:35:22 23° NE 04:38:56 10° E visible
14 Aug - 06:13:27 10° NW 06:17:45 67° WSW 06:22:16 10° SSE daylight
14 Aug - 20:48:39 10° S 20:52:23 26° ESE 20:56:00 10° ENE visible
14 Aug - 22:29:54 10° WSW 22:34:12 47° NW 22:38:21 10° NNE visible
15 Aug - 00:15:06 10° NW 00:17:15 13° NNW 00:19:23 10° N visible
15 Aug - 03:42:32 10° N 03:45:14 16° NNE 03:47:57 10° ENE visible
15 Aug - 05:23:46 10° NNW 05:28:04 64° NE 05:32:33 10° SE daylight
15 Aug - 07:06:35 10° WNW 07:09:41 19° WSW 07:12:53 10° SSW daylight
15 Aug - 20:00:54 10° SE 20:03:01 13° ESE 20:05:07 10° E daylight
15 Aug - 21:39:56 10° SW 21:44:26 88° NW 21:48:45 10° NE visible
15 Aug - 23:23:54 10° W 23:27:02 19° NNW 23:30:08 10° NNE visible
16 Aug - 02:53:25 10° N 02:54:58 12° NNE 02:56:30 10° NE visible
16 Aug - 04:34:13 10° NNW 04:38:13 36° NE 04:42:22 10° ESE visible
16 Aug - 06:16:14 10° NW 06:20:14 36° WSW 06:24:26 10° S daylight
16 Aug - 20:50:29 10° SSW 20:54:48 47° ESE 20:58:57 10° NE visible
16 Aug - 22:33:07 10° WSW 22:36:59 29° NW 22:40:45 10° NNE visible
17 Aug - 00:19:39 10° NNW 00:20:25 10° NNW 00:21:11 10° N visible
17 Aug - 03:44:47 10° NNW 03:48:13 23° NE 03:51:45 10° E visible
17 Aug - 05:26:20 10° NW 05:30:39 72° WSW 05:35:12 10° SSE daylight
17 Aug - 20:01:41 10° SSE 20:05:18 24° ESE 20:08:49 10° ENE daylight
17 Aug - 21:42:45 10° SW 21:47:04 50° NW 21:51:15 10° NNE visible
17 Aug - 23:27:50 10° WNW 23:30:05 14° NNW 23:32:19 10° N visible
18 Aug - 02:55:28 10° N 02:58:04 15° NNE 03:00:43 10° ENE visible
18 Aug - 04:36:39 10° NNW 04:40:56 61° NE 04:45:26 10° SE visible
18 Aug - 06:19:21 10° WNW 06:22:36 20° WSW 06:25:58 10° SSW daylight
18 Aug - 19:14:09 10° SE 19:15:57 12° ESE 19:17:44 10° E daylight
18 Aug - 20:52:51 10° SW 20:57:19 87° SE 21:01:38 10° NE visible
18 Aug - 22:36:41 10° W 22:39:53 20° NNW 22:43:03 10° NNE visible
